SL-12 DEB, 41699

Orbit data source: Space-Track

SL-12 DEB, 41699 is space debris in HEO originally from a launch on Mon, 01 Mar 2010 UTC launched from the Tyuratam Missile And Space Complex (TTMTR). Debris objects in space refer to the collection of defunct objects orbiting the Earth. Examples of debris include non-operational satellites, rocket bodies, and fragments generated from explosions, collisions, or faulty payload assembly.

Loading next visibility...
Identifier
41699, 2010-007R
Orbit
HEO
Country
Flag of CISCIS
Related business
Manufacturer
RKKE
Mission
Spacecraft
Bus & Motor
Unknown
Mass
Unknown
Launch date (UTC)
2010-03-01 (17 years ago)
Launch vehicle
Unknown
Launch site
Tyuratam Missile And Space Complex (TTMTR)
Object type
Payload
Rocket body
Debris
Shape & HBR
Unknown shape, 0.6 m
Radar Cross Section
Medium (>0.1 m² and <1 m²)

Expand to show TLE details & history
Last TLE update: 4 days ago

TLE from 4 days ago
0 SL-12 DEB
1 41699U 10007R   26252.98313894  .00000061  00000-0  56678-4 0  9992
2 41699  64.8879 107.2424 5493993 303.3462  15.5934  4.37312155191533
Epoch: 2026-09-09T23:35Z
TLE epoch observation values (Epoch: 2026-09-09T23:35:43.204Z)
Latitude
-0.00029°
Longitude
124.29485°
Altitude
2,102.33 km
Speed
8.294 km/s
True Right ascension
07h 09m 00s
True Declination
0° 00' 01"
Sunlit
Object was in daylight at epoch
Visualization orbit readout
Latitude
Unknown
Longitude
Unknown
Altitude
Unknown
Speed
Unknown
Apparent Right ascension
Unknown
Apparent Declination
Unknown
Sunlit
N/A
Visualization observer readout
Local Sidereal Time
21:02:14
Azimuth
Unknown
Elevation
Unknown
Doppler factor
Unknown
Orbital elements
Apogee altitude
18,094.131 km
Perigee altitude
738.958 km
Semi-major axis
15,794.681 km
Eccentricity
0.5494
Inclination
64.8879°
RAAN
107.2424°
Arg. of periapsis
303.3462°
True anomaly
56.80054°
Mean anomaly
15.5934°
Eccentric anomaly
32.5124°
Mean motion
1.09339 °/min
Orbital period
329.25 mins
BSTAR
0.000056678
Loading maneuver chart data...
Computing Atmospheric mass density...
Loading historical data...
Loading historical data...
Loading historical data...
Loading historical data...
Loading historical data...
Loading historical data...
Loading historical data...

Documentation

Showing up to 5 results
|